{"data":{"norad_id":57145,"epoch":"2026-05-25T03:20:22.775136Z","epoch_age_seconds":62958,"freshness":"FRESH","line1":"1 57145U 23090AW  26145.13915249 -.00004313  00000+0 -14726-3 0  9993","line2":"2 57145  43.0018 191.7313 0000813 322.6630  37.4165 15.27592403162046","mean_motion":15.27592403,"eccentricity":8.13e-5,"inclination_deg":43.0018,"raan_deg":191.7313,"arg_perigee_deg":322.663,"mean_anomaly_deg":37.4165,"bstar":-0.00014726,"rev_number":16204,"period_min":94.265983332466,"perigee_km":482.45414583676,"apogee_km":483.56976865721,"semimajor_km":6861.148957247,"source":"CELESTRAK","updated_at":"2026-05-25T13:38:18.248611Z"}}